Year,Month,Day,Hour,Minute,Value (Times are PST for temperature in C)
2017,09,22,00,00,11.10
2017,09,22,00,01,11.10
2017,09,22,00,02,11.10
2017,09,22,00,03,11.20
2017,09,22,00,04,11.10
2017,09,22,00,05,11.00
2017,09,22,00,06,10.90
2017,09,22,00,07,10.80
2017,09,22,00,08,10.70
2017,09,22,00,09,10.60
2017,09,22,00,10,10.50
2017,09,22,00,11,10.30
2017,09,22,00,12,10.20
2017,09,22,00,13,10.00
2017,09,22,00,14,9.90
2017,09,22,00,15,9.70
2017,09,22,00,16,9.60
2017,09,22,00,17,9.50
2017,09,22,00,18,9.40
2017,09,22,00,19,9.30
2017,09,22,00,20,9.20
2017,09,22,00,21,9.10
2017,09,22,00,22,9.00
2017,09,22,00,23,9.00
2017,09,22,00,24,8.90
2017,09,22,00,25,8.80
2017,09,22,00,26,8.80
2017,09,22,00,27,8.70
2017,09,22,00,28,8.70
2017,09,22,00,29,8.70
2017,09,22,00,30,8.60
2017,09,22,00,31,8.60
2017,09,22,00,32,8.60
2017,09,22,00,33,8.50
2017,09,22,00,34,8.50
2017,09,22,00,35,8.40
2017,09,22,00,36,8.40
2017,09,22,00,37,8.40
2017,09,22,00,38,8.30
2017,09,22,00,39,8.30
2017,09,22,00,40,8.30
2017,09,22,00,41,8.20
2017,09,22,00,42,8.20
2017,09,22,00,43,8.20
2017,09,22,00,44,8.20
2017,09,22,00,45,8.20
2017,09,22,00,46,8.20
2017,09,22,00,47,8.30
2017,09,22,00,48,8.30
2017,09,22,00,49,8.30
2017,09,22,00,50,8.30
2017,09,22,00,51,8.20
2017,09,22,00,52,8.20
2017,09,22,00,53,8.20
2017,09,22,00,54,8.20
2017,09,22,00,55,8.20
2017,09,22,00,56,8.30
2017,09,22,00,57,8.30
2017,09,22,00,58,8.40
2017,09,22,00,59,8.50
2017,09,22,01,00,8.60
2017,09,22,01,01,8.70
2017,09,22,01,02,8.70
2017,09,22,01,03,8.70
2017,09,22,01,04,8.70
2017,09,22,01,05,8.60
2017,09,22,01,06,8.60
2017,09,22,01,07,8.60
2017,09,22,01,08,8.50
2017,09,22,01,09,8.50
2017,09,22,01,10,8.40
2017,09,22,01,11,8.30
2017,09,22,01,12,8.30
2017,09,22,01,13,8.20
2017,09,22,01,14,8.10
2017,09,22,01,15,8.10
2017,09,22,01,16,8.00
2017,09,22,01,17,7.90
2017,09,22,01,18,7.90
2017,09,22,01,19,7.80
2017,09,22,01,20,7.80
2017,09,22,01,21,7.70
2017,09,22,01,22,7.70
2017,09,22,01,23,7.70
2017,09,22,01,24,7.60
2017,09,22,01,25,7.60
2017,09,22,01,26,7.50
2017,09,22,01,27,7.50
2017,09,22,01,28,7.50
2017,09,22,01,29,7.40
2017,09,22,01,30,7.40
2017,09,22,01,31,7.40
2017,09,22,01,32,7.30
2017,09,22,01,33,7.30
2017,09,22,01,34,7.30
2017,09,22,01,35,7.30
2017,09,22,01,36,7.30
2017,09,22,01,37,7.20
2017,09,22,01,38,7.20
2017,09,22,01,39,7.20
2017,09,22,01,40,7.20
2017,09,22,01,41,7.20
2017,09,22,01,42,7.20
2017,09,22,01,43,7.30
2017,09,22,01,44,7.30
2017,09,22,01,45,7.30
2017,09,22,01,46,7.30
2017,09,22,01,47,7.20
2017,09,22,01,48,7.20
2017,09,22,01,49,7.20
2017,09,22,01,50,7.20
2017,09,22,01,51,7.10
2017,09,22,01,52,7.10
2017,09,22,01,53,7.10
2017,09,22,01,54,7.10
2017,09,22,01,55,7.00
2017,09,22,01,56,7.00
2017,09,22,01,57,7.00
2017,09,22,01,58,7.00
2017,09,22,01,59,6.90
2017,09,22,02,00,6.90
2017,09,22,02,01,6.90
2017,09,22,02,02,6.80
2017,09,22,02,03,6.90
2017,09,22,02,04,6.90
2017,09,22,02,05,7.10
2017,09,22,02,06,7.20
2017,09,22,02,07,7.20
2017,09,22,02,08,7.30
2017,09,22,02,09,7.40
2017,09,22,02,10,7.50
2017,09,22,02,11,7.50
2017,09,22,02,12,7.50
2017,09,22,02,13,7.40
2017,09,22,02,14,7.40
2017,09,22,02,15,7.30
2017,09,22,02,16,7.30
2017,09,22,02,17,7.20
2017,09,22,02,18,7.20
2017,09,22,02,19,7.10
2017,09,22,02,20,7.10
2017,09,22,02,21,7.00
2017,09,22,02,22,7.00
2017,09,22,02,23,6.90
2017,09,22,02,24,6.90
2017,09,22,02,25,6.80
2017,09,22,02,26,6.80
2017,09,22,02,27,6.90
2017,09,22,02,28,7.00
2017,09,22,02,29,7.00
2017,09,22,02,30,7.00
2017,09,22,02,31,7.00
2017,09,22,02,32,7.10
2017,09,22,02,33,7.20
2017,09,22,02,34,7.30
2017,09,22,02,35,7.40
2017,09,22,02,36,7.50
2017,09,22,02,37,7.40
2017,09,22,02,38,7.40
2017,09,22,02,39,7.30
2017,09,22,02,40,7.20
2017,09,22,02,41,7.10
2017,09,22,02,42,7.10
2017,09,22,02,43,7.00
2017,09,22,02,44,7.00
2017,09,22,02,45,7.00
2017,09,22,02,46,7.00
2017,09,22,02,47,7.10
2017,09,22,02,48,7.10
2017,09,22,02,49,7.00
2017,09,22,02,50,7.00
2017,09,22,02,51,6.90
2017,09,22,02,52,6.90
2017,09,22,02,53,6.80
2017,09,22,02,54,6.70
2017,09,22,02,55,6.70
2017,09,22,02,56,6.60
2017,09,22,02,57,6.60
2017,09,22,02,58,6.60
2017,09,22,02,59,6.60
2017,09,22,03,00,6.70
2017,09,22,03,01,6.80
2017,09,22,03,02,6.80
2017,09,22,03,03,6.90
2017,09,22,03,04,6.90
2017,09,22,03,05,6.90
2017,09,22,03,06,6.90
2017,09,22,03,07,6.90
2017,09,22,03,08,7.00
2017,09,22,03,09,7.20
2017,09,22,03,10,7.30
2017,09,22,03,11,7.40
2017,09,22,03,12,7.60
2017,09,22,03,13,7.70
2017,09,22,03,14,7.80
2017,09,22,03,15,8.00
2017,09,22,03,16,8.10
2017,09,22,03,17,8.30
2017,09,22,03,18,8.40
2017,09,22,03,19,8.50
2017,09,22,03,20,8.60
2017,09,22,03,21,8.70
2017,09,22,03,22,8.80
2017,09,22,03,23,8.80
2017,09,22,03,24,8.90
2017,09,22,03,25,8.90
2017,09,22,03,26,8.90
2017,09,22,03,27,8.90
2017,09,22,03,28,8.90
2017,09,22,03,29,8.90
2017,09,22,03,30,8.80
2017,09,22,03,31,8.80
2017,09,22,03,32,8.70
2017,09,22,03,33,8.60
2017,09,22,03,34,8.50
2017,09,22,03,35,8.40
2017,09,22,03,36,8.30
2017,09,22,03,37,8.10
2017,09,22,03,38,8.00
2017,09,22,03,39,7.90
2017,09,22,03,40,7.80
2017,09,22,03,41,7.80
2017,09,22,03,42,7.70
2017,09,22,03,43,7.60
2017,09,22,03,44,7.50
2017,09,22,03,45,7.50
2017,09,22,03,46,7.40
2017,09,22,03,47,7.40
2017,09,22,03,48,7.40
2017,09,22,03,49,7.40
2017,09,22,03,50,7.30
2017,09,22,03,51,7.30
2017,09,22,03,52,7.30
2017,09,22,03,53,7.30
2017,09,22,03,54,7.30
2017,09,22,03,55,7.40
2017,09,22,03,56,7.40
2017,09,22,03,57,7.40
2017,09,22,03,58,7.30
2017,09,22,03,59,7.30
2017,09,22,04,00,7.20
2017,09,22,04,01,7.10
2017,09,22,04,02,7.10
2017,09,22,04,03,7.00
2017,09,22,04,04,6.90
2017,09,22,04,05,6.90
2017,09,22,04,06,6.80
2017,09,22,04,07,6.80
2017,09,22,04,08,6.70
2017,09,22,04,09,6.70
2017,09,22,04,10,6.60
2017,09,22,04,11,6.60
2017,09,22,04,12,6.60
2017,09,22,04,13,6.50
2017,09,22,04,14,6.50
2017,09,22,04,15,6.40
2017,09,22,04,16,6.40
2017,09,22,04,17,6.30
2017,09,22,04,18,6.30
2017,09,22,04,19,6.30
2017,09,22,04,20,6.20
2017,09,22,04,21,6.20
2017,09,22,04,22,6.10
2017,09,22,04,23,6.10
2017,09,22,04,24,6.10
2017,09,22,04,25,6.00
2017,09,22,04,26,6.00
2017,09,22,04,27,6.00
2017,09,22,04,28,5.90
2017,09,22,04,29,5.90
2017,09,22,04,30,5.90
2017,09,22,04,31,5.80
2017,09,22,04,32,5.80
2017,09,22,04,33,5.80
2017,09,22,04,34,5.80
2017,09,22,04,35,5.80
2017,09,22,04,36,5.70
2017,09,22,04,37,5.70
2017,09,22,04,38,5.70
2017,09,22,04,39,5.70
2017,09,22,04,40,5.70
2017,09,22,04,41,5.70
2017,09,22,04,42,5.60
2017,09,22,04,43,5.60
2017,09,22,04,44,5.60
2017,09,22,04,45,5.60
2017,09,22,04,46,5.60
2017,09,22,04,47,5.50
2017,09,22,04,48,5.50
2017,09,22,04,49,5.50
2017,09,22,04,50,5.40
2017,09,22,04,51,5.40
2017,09,22,04,52,5.40
2017,09,22,04,53,5.40
2017,09,22,04,54,5.40
2017,09,22,04,55,5.40
2017,09,22,04,56,5.50
2017,09,22,04,57,5.50
2017,09,22,04,58,5.60
2017,09,22,04,59,5.70
2017,09,22,05,00,5.80
2017,09,22,05,01,5.90
2017,09,22,05,02,6.00
2017,09,22,05,03,6.00
2017,09,22,05,04,6.00
2017,09,22,05,05,5.90
2017,09,22,05,06,5.90
2017,09,22,05,07,5.80
2017,09,22,05,08,5.80
2017,09,22,05,09,5.70
2017,09,22,05,10,5.70
2017,09,22,05,11,5.60
2017,09,22,05,12,5.60
2017,09,22,05,13,5.60
2017,09,22,05,14,5.60
2017,09,22,05,15,5.60
2017,09,22,05,16,5.60
2017,09,22,05,17,5.70
2017,09,22,05,18,5.70
2017,09,22,05,19,5.70
2017,09,22,05,20,5.70
2017,09,22,05,21,5.70
2017,09,22,05,22,5.70
2017,09,22,05,23,5.70
2017,09,22,05,24,5.70
2017,09,22,05,25,5.60
2017,09,22,05,26,5.60
2017,09,22,05,27,5.60
2017,09,22,05,28,5.50
2017,09,22,05,29,5.50
2017,09,22,05,30,5.40
2017,09,22,05,31,5.40
2017,09,22,05,32,5.30
2017,09,22,05,33,5.30
2017,09,22,05,34,5.30
2017,09,22,05,35,5.20
2017,09,22,05,36,5.20
2017,09,22,05,37,5.10
2017,09,22,05,38,5.10
2017,09,22,05,39,5.10
2017,09,22,05,40,5.00
2017,09,22,05,41,5.00
2017,09,22,05,42,5.00
2017,09,22,05,43,4.90
2017,09,22,05,44,4.90
2017,09,22,05,45,4.90
2017,09,22,05,46,4.90
2017,09,22,05,47,4.80
2017,09,22,05,48,4.80
2017,09,22,05,49,4.80
2017,09,22,05,50,4.80
2017,09,22,05,51,4.80
2017,09,22,05,52,4.80
2017,09,22,05,53,4.80
2017,09,22,05,54,4.70
2017,09,22,05,55,4.70
2017,09,22,05,56,4.70
2017,09,22,05,57,4.70
2017,09,22,05,58,4.70
2017,09,22,05,59,4.70
2017,09,22,06,00,4.70
2017,09,22,06,01,4.70
2017,09,22,06,02,4.70
2017,09,22,06,03,4.70
2017,09,22,06,04,4.60
2017,09,22,06,05,4.60
2017,09,22,06,06,4.60
2017,09,22,06,07,4.60
2017,09,22,06,08,4.60
2017,09,22,06,09,4.60
2017,09,22,06,10,4.60
2017,09,22,06,11,4.60
2017,09,22,06,12,4.60
2017,09,22,06,13,4.60
2017,09,22,06,14,4.60
2017,09,22,06,15,4.60
2017,09,22,06,16,4.60
2017,09,22,06,17,4.60
2017,09,22,06,18,4.60
2017,09,22,06,19,4.60
2017,09,22,06,20,4.60
2017,09,22,06,21,4.60
2017,09,22,06,22,4.70
2017,09,22,06,23,4.90
2017,09,22,06,24,5.10
2017,09,22,06,25,5.20
2017,09,22,06,26,5.30
2017,09,22,06,27,5.40
2017,09,22,06,28,5.50
2017,09,22,06,29,5.50
2017,09,22,06,30,5.60
2017,09,22,06,31,5.70
2017,09,22,06,32,5.70
2017,09,22,06,33,5.70
2017,09,22,06,34,5.80
2017,09,22,06,35,5.70
2017,09,22,06,36,5.60
2017,09,22,06,37,5.60
2017,09,22,06,38,5.50
2017,09,22,06,39,5.50
2017,09,22,06,40,5.40
2017,09,22,06,41,5.40
2017,09,22,06,42,5.40
2017,09,22,06,43,5.40
2017,09,22,06,44,5.30
2017,09,22,06,45,5.20
2017,09,22,06,46,5.10
2017,09,22,06,47,5.10
2017,09,22,06,48,5.00
2017,09,22,06,49,5.00
2017,09,22,06,50,4.90
2017,09,22,06,51,4.80
2017,09,22,06,52,4.80
2017,09,22,06,53,4.80
2017,09,22,06,54,4.80
2017,09,22,06,55,4.80
2017,09,22,06,56,4.70
2017,09,22,06,57,4.70
2017,09,22,06,58,4.70
2017,09,22,06,59,4.70
2017,09,22,07,00,4.70
2017,09,22,07,01,4.70
2017,09,22,07,02,4.90
2017,09,22,07,03,5.00
2017,09,22,07,04,5.20
2017,09,22,07,05,5.40
2017,09,22,07,06,5.50
2017,09,22,07,07,5.60
2017,09,22,07,08,5.60
2017,09,22,07,09,5.70
2017,09,22,07,10,5.80
2017,09,22,07,11,5.80
2017,09,22,07,12,5.80
2017,09,22,07,13,5.90
2017,09,22,07,14,5.90
2017,09,22,07,15,5.90
2017,09,22,07,16,5.90
2017,09,22,07,17,5.80
2017,09,22,07,18,5.80
2017,09,22,07,19,5.70
2017,09,22,07,20,5.60
2017,09,22,07,21,5.50
2017,09,22,07,22,5.40
2017,09,22,07,23,5.30
2017,09,22,07,24,5.20
2017,09,22,07,25,5.20
2017,09,22,07,26,5.10
2017,09,22,07,27,5.10
2017,09,22,07,28,5.10
2017,09,22,07,29,5.10
2017,09,22,07,30,5.10
2017,09,22,07,31,5.00
2017,09,22,07,32,5.00
2017,09,22,07,33,5.00
2017,09,22,07,34,4.90
2017,09,22,07,35,4.90
2017,09,22,07,36,4.90
2017,09,22,07,37,4.90
2017,09,22,07,38,4.90
2017,09,22,07,39,4.90
2017,09,22,07,40,5.00
2017,09,22,07,41,5.00
2017,09,22,07,42,5.10
2017,09,22,07,43,5.20
2017,09,22,07,44,5.30
2017,09,22,07,45,5.40
2017,09,22,07,46,5.40
2017,09,22,07,47,5.40
2017,09,22,07,48,5.30
2017,09,22,07,49,5.30
2017,09,22,07,50,5.30
2017,09,22,07,51,5.40
2017,09,22,07,52,5.40
2017,09,22,07,53,5.40
2017,09,22,07,54,5.40
2017,09,22,07,55,5.40
2017,09,22,07,56,5.40
2017,09,22,07,57,5.40
2017,09,22,07,58,5.50
2017,09,22,07,59,5.50
2017,09,22,08,00,5.50
2017,09,22,08,01,5.50
2017,09,22,08,02,5.50
2017,09,22,08,03,5.50
2017,09,22,08,04,5.50
2017,09,22,08,05,5.50
2017,09,22,08,06,5.50
2017,09,22,08,07,5.50
2017,09,22,08,08,5.50
2017,09,22,08,09,5.60
2017,09,22,08,10,5.60
2017,09,22,08,11,5.60
2017,09,22,08,12,5.70
2017,09,22,08,13,5.70
2017,09,22,08,14,5.80
2017,09,22,08,15,5.90
2017,09,22,08,16,5.90
2017,09,22,08,17,5.90
2017,09,22,08,18,6.00
2017,09,22,08,19,6.10
2017,09,22,08,20,6.10
2017,09,22,08,21,6.10
2017,09,22,08,22,6.20
2017,09,22,08,23,6.20
2017,09,22,08,24,6.20
2017,09,22,08,25,6.20
2017,09,22,08,26,6.30
2017,09,22,08,27,6.40
2017,09,22,08,28,6.40
2017,09,22,08,29,6.50
2017,09,22,08,30,6.60
2017,09,22,08,31,6.70
2017,09,22,08,32,6.70
2017,09,22,08,33,6.70
2017,09,22,08,34,6.80
2017,09,22,08,35,6.80
2017,09,22,08,36,6.90
2017,09,22,08,37,6.90
2017,09,22,08,38,6.90
2017,09,22,08,39,6.90
2017,09,22,08,40,6.90
2017,09,22,08,41,7.00
2017,09,22,08,42,7.00
2017,09,22,08,43,7.00
2017,09,22,08,44,7.10
2017,09,22,08,45,7.10
2017,09,22,08,46,7.20
2017,09,22,08,47,7.20
2017,09,22,08,48,7.20
2017,09,22,08,49,7.20
2017,09,22,08,50,7.30
2017,09,22,08,51,7.30
2017,09,22,08,52,7.40
2017,09,22,08,53,7.50
2017,09,22,08,54,7.60
2017,09,22,08,55,7.70
2017,09,22,08,56,7.80
2017,09,22,08,57,7.90
2017,09,22,08,58,8.00
2017,09,22,08,59,8.10
2017,09,22,09,00,8.20
2017,09,22,09,01,8.30
2017,09,22,09,02,8.30
2017,09,22,09,03,8.40
2017,09,22,09,04,8.50
2017,09,22,09,05,8.60
2017,09,22,09,06,8.70
2017,09,22,09,07,8.80
2017,09,22,09,08,8.90
2017,09,22,09,09,9.00
2017,09,22,09,10,9.10
2017,09,22,09,11,9.20
2017,09,22,09,12,9.30
2017,09,22,09,13,9.30
2017,09,22,09,14,9.40
2017,09,22,09,15,9.50
2017,09,22,09,16,9.50
2017,09,22,09,17,9.60
2017,09,22,09,18,9.70
2017,09,22,09,19,9.80
2017,09,22,09,20,9.90
2017,09,22,09,21,10.00
2017,09,22,09,22,10.10
2017,09,22,09,23,10.10
2017,09,22,09,24,10.20
2017,09,22,09,25,10.30
2017,09,22,09,26,10.40
2017,09,22,09,27,10.50
2017,09,22,09,28,10.50
2017,09,22,09,29,10.60
2017,09,22,09,30,10.70
2017,09,22,09,31,10.80
2017,09,22,09,32,10.80
2017,09,22,09,33,10.90
2017,09,22,09,34,11.00
2017,09,22,09,35,11.10
2017,09,22,09,36,11.10
2017,09,22,09,37,11.10
2017,09,22,09,38,11.20
2017,09,22,09,39,11.20
2017,09,22,09,40,11.20
2017,09,22,09,41,11.30
2017,09,22,09,42,11.30
2017,09,22,09,43,11.40
2017,09,22,09,44,11.50
2017,09,22,09,45,11.60
2017,09,22,09,46,11.60
2017,09,22,09,47,11.70
2017,09,22,09,48,11.70
2017,09,22,09,49,11.80
2017,09,22,09,50,11.90
2017,09,22,09,51,12.00
2017,09,22,09,52,12.00
2017,09,22,09,53,12.10
2017,09,22,09,54,12.10
2017,09,22,09,55,12.10
2017,09,22,09,56,12.00
2017,09,22,09,57,12.00
2017,09,22,09,58,11.90
2017,09,22,09,59,11.80
2017,09,22,10,00,11.80
2017,09,22,10,01,11.80
2017,09,22,10,02,11.80
2017,09,22,10,03,11.80
2017,09,22,10,04,11.80
2017,09,22,10,05,11.80
2017,09,22,10,06,11.80
2017,09,22,10,07,11.80
2017,09,22,10,08,11.80
2017,09,22,10,09,11.80
2017,09,22,10,10,11.80
2017,09,22,10,11,11.90
2017,09,22,10,12,11.90
2017,09,22,10,13,11.90
2017,09,22,10,14,12.00
2017,09,22,10,15,12.00
2017,09,22,10,16,12.10
2017,09,22,10,17,12.20
2017,09,22,10,18,12.30
2017,09,22,10,19,12.40
2017,09,22,10,20,12.40
2017,09,22,10,21,12.50
2017,09,22,10,22,12.50
2017,09,22,10,23,12.60
2017,09,22,10,24,12.60
2017,09,22,10,25,12.70
2017,09,22,10,26,12.70
2017,09,22,10,27,12.70
2017,09,22,10,28,12.70
2017,09,22,10,29,12.70
2017,09,22,10,30,12.70
2017,09,22,10,31,12.80
2017,09,22,10,32,12.80
2017,09,22,10,33,12.80
2017,09,22,10,34,12.90
2017,09,22,10,35,12.90
2017,09,22,10,36,12.80
2017,09,22,10,37,12.80
2017,09,22,10,38,12.80
2017,09,22,10,39,12.80
2017,09,22,10,40,12.70
2017,09,22,10,41,12.70
2017,09,22,10,42,12.60
2017,09,22,10,43,12.60
2017,09,22,10,44,12.50
2017,09,22,10,45,12.40
2017,09,22,10,46,12.40
2017,09,22,10,47,12.40
2017,09,22,10,48,12.40
2017,09,22,10,49,12.40
2017,09,22,10,50,12.50
2017,09,22,10,51,12.50
2017,09,22,10,52,12.50
2017,09,22,10,53,12.50
2017,09,22,10,54,12.60
2017,09,22,10,55,12.60
2017,09,22,10,56,12.70
2017,09,22,10,57,12.70
2017,09,22,10,58,12.80
2017,09,22,10,59,12.90
2017,09,22,11,00,12.90
2017,09,22,11,01,12.90
2017,09,22,11,02,12.90
2017,09,22,11,03,13.00
2017,09,22,11,04,13.00
2017,09,22,11,05,13.00
2017,09,22,11,06,13.10
2017,09,22,11,07,13.10
2017,09,22,11,08,13.20
2017,09,22,11,09,13.20
2017,09,22,11,10,13.20
2017,09,22,11,11,13.30
2017,09,22,11,12,13.30
2017,09,22,11,13,13.30
2017,09,22,11,14,13.40
2017,09,22,11,15,13.40
2017,09,22,11,16,13.50
2017,09,22,11,17,13.60
2017,09,22,11,18,13.60
2017,09,22,11,19,13.70
2017,09,22,11,20,13.70
2017,09,22,11,21,13.70
2017,09,22,11,22,13.70
2017,09,22,11,23,13.70
2017,09,22,11,24,13.80
2017,09,22,11,25,13.90
2017,09,22,11,26,13.90
2017,09,22,11,27,14.00
2017,09,22,11,28,14.10
2017,09,22,11,29,14.20
2017,09,22,11,30,14.20
2017,09,22,11,31,14.20
2017,09,22,11,32,14.20
2017,09,22,11,33,14.30
2017,09,22,11,34,14.30
2017,09,22,11,35,14.30
2017,09,22,11,36,14.30
2017,09,22,11,37,14.30
2017,09,22,11,38,14.30
2017,09,22,11,39,14.30
2017,09,22,11,40,14.30
2017,09,22,11,41,14.30
2017,09,22,11,42,14.40
2017,09,22,11,43,14.40
2017,09,22,11,44,14.50
2017,09,22,11,45,14.50
2017,09,22,11,46,14.60
2017,09,22,11,47,14.60
2017,09,22,11,48,14.60
2017,09,22,11,49,14.70
2017,09,22,11,50,14.70
2017,09,22,11,51,14.80
2017,09,22,11,52,14.80
2017,09,22,11,53,14.90
2017,09,22,11,54,15.00
2017,09,22,11,55,15.10
2017,09,22,11,56,15.10
2017,09,22,11,57,15.20
2017,09,22,11,58,15.20
2017,09,22,11,59,15.20
2017,09,22,12,00,15.10
2017,09,22,12,01,15.10
2017,09,22,12,02,15.10
2017,09,22,12,03,15.10
2017,09,22,12,04,15.10
2017,09,22,12,05,15.20
2017,09,22,12,06,15.20
2017,09,22,12,07,15.20
2017,09,22,12,08,15.20
2017,09,22,12,09,15.20
2017,09,22,12,10,15.20
2017,09,22,12,11,15.20
2017,09,22,12,12,15.20
2017,09,22,12,13,15.20
2017,09,22,12,14,15.20
2017,09,22,12,15,15.20
2017,09,22,12,16,15.20
2017,09,22,12,17,15.10
2017,09,22,12,18,15.10
2017,09,22,12,19,15.00
2017,09,22,12,20,14.90
2017,09,22,12,21,14.90
2017,09,22,12,22,14.90
2017,09,22,12,23,14.90
2017,09,22,12,24,14.90
2017,09,22,12,25,14.90
2017,09,22,12,26,14.90
2017,09,22,12,27,14.90
2017,09,22,12,28,15.00
2017,09,22,12,29,15.00
2017,09,22,12,30,15.10
2017,09,22,12,31,15.20
2017,09,22,12,32,15.30
2017,09,22,12,33,15.30
2017,09,22,12,34,15.40
2017,09,22,12,35,15.50
2017,09,22,12,36,15.50
2017,09,22,12,37,15.60
2017,09,22,12,38,15.60
2017,09,22,12,39,15.60
2017,09,22,12,40,15.60
2017,09,22,12,41,15.60
2017,09,22,12,42,15.60
2017,09,22,12,43,15.60
2017,09,22,12,44,15.70
2017,09,22,12,45,15.70
2017,09,22,12,46,15.70
2017,09,22,12,47,15.70
2017,09,22,12,48,15.80
2017,09,22,12,49,15.90
2017,09,22,12,50,16.00
2017,09,22,12,51,16.10
2017,09,22,12,52,16.20
2017,09,22,12,53,16.20
2017,09,22,12,54,16.30
2017,09,22,12,55,16.40
2017,09,22,12,56,16.50
2017,09,22,12,57,16.50
2017,09,22,12,58,16.60
2017,09,22,12,59,16.70
2017,09,22,13,00,16.70
2017,09,22,13,01,16.80
2017,09,22,13,02,16.80
2017,09,22,13,03,16.90
2017,09,22,13,04,16.90
2017,09,22,13,05,17.00
2017,09,22,13,06,17.00
2017,09,22,13,07,17.10
2017,09,22,13,08,17.10
2017,09,22,13,09,17.10
2017,09,22,13,10,17.10
2017,09,22,13,11,17.10
2017,09,22,13,12,17.00
2017,09,22,13,13,17.00
2017,09,22,13,14,16.90
2017,09,22,13,15,16.90
2017,09,22,13,16,16.90
2017,09,22,13,17,16.90
2017,09,22,13,18,16.90
2017,09,22,13,19,16.80
2017,09,22,13,20,16.80
2017,09,22,13,21,16.80
2017,09,22,13,22,16.80
2017,09,22,13,23,16.80
2017,09,22,13,24,16.70
2017,09,22,13,25,16.70
2017,09,22,13,26,16.70
2017,09,22,13,27,16.70
2017,09,22,13,28,16.80
2017,09,22,13,29,16.80
2017,09,22,13,30,16.80
2017,09,22,13,31,16.80
2017,09,22,13,32,16.80
2017,09,22,13,33,16.90
2017,09,22,13,34,16.90
2017,09,22,13,35,16.90
2017,09,22,13,36,16.90
2017,09,22,13,37,16.90
2017,09,22,13,38,16.90
2017,09,22,13,39,16.90
2017,09,22,13,40,16.80
2017,09,22,13,41,16.80
2017,09,22,13,42,16.80
2017,09,22,13,43,16.80
2017,09,22,13,44,16.90
2017,09,22,13,45,16.90
2017,09,22,13,46,16.90
2017,09,22,13,47,17.00
2017,09,22,13,48,17.00
2017,09,22,13,49,17.10
2017,09,22,13,50,17.10
2017,09,22,13,51,17.10
2017,09,22,13,52,17.20
2017,09,22,13,53,17.20
2017,09,22,13,54,17.20
2017,09,22,13,55,17.20
2017,09,22,13,56,17.20
2017,09,22,13,57,17.20
2017,09,22,13,58,17.20
2017,09,22,13,59,17.20
2017,09,22,14,00,17.30
2017,09,22,14,01,17.30
2017,09,22,14,02,17.30
2017,09,22,14,03,17.30
2017,09,22,14,04,17.30
2017,09,22,14,05,17.30
2017,09,22,14,06,17.40
2017,09,22,14,07,17.40
2017,09,22,14,08,17.50
2017,09,22,14,09,17.60
2017,09,22,14,10,17.70
2017,09,22,14,11,17.80
2017,09,22,14,12,17.90
2017,09,22,14,13,18.00
2017,09,22,14,14,18.00
2017,09,22,14,15,18.10
2017,09,22,14,16,18.20
2017,09,22,14,17,18.20
2017,09,22,14,18,18.30
2017,09,22,14,19,18.30
2017,09,22,14,20,18.40
2017,09,22,14,21,18.40
2017,09,22,14,22,18.50
2017,09,22,14,23,18.50
2017,09,22,14,24,18.60
2017,09,22,14,25,18.60
2017,09,22,14,26,18.60
2017,09,22,14,27,18.60
2017,09,22,14,28,18.60
2017,09,22,14,29,18.50
2017,09,22,14,30,18.50
2017,09,22,14,31,18.40
2017,09,22,14,32,18.40
2017,09,22,14,33,18.50
2017,09,22,14,34,18.50
2017,09,22,14,35,18.60
2017,09,22,14,36,18.60
2017,09,22,14,37,18.60
2017,09,22,14,38,18.60
2017,09,22,14,39,18.60
2017,09,22,14,40,18.60
2017,09,22,14,41,18.50
2017,09,22,14,42,18.50
2017,09,22,14,43,18.50
2017,09,22,14,44,18.40
2017,09,22,14,45,18.40
2017,09,22,14,46,18.40
2017,09,22,14,47,18.40
2017,09,22,14,48,18.40
2017,09,22,14,49,18.40
2017,09,22,14,50,18.40
2017,09,22,14,51,18.40
2017,09,22,14,52,18.50
2017,09,22,14,53,18.50
2017,09,22,14,54,18.50
2017,09,22,14,55,18.60
2017,09,22,14,56,18.60
2017,09,22,14,57,18.60
2017,09,22,14,58,18.60
2017,09,22,14,59,18.60
2017,09,22,15,00,18.70
2017,09,22,15,01,18.70
2017,09,22,15,02,18.70
2017,09,22,15,03,18.70
2017,09,22,15,04,18.70
2017,09,22,15,05,18.70
2017,09,22,15,06,18.70
2017,09,22,15,07,18.70
2017,09,22,15,08,18.70
2017,09,22,15,09,18.70
2017,09,22,15,10,18.70
2017,09,22,15,11,18.70
2017,09,22,15,12,18.70
2017,09,22,15,13,18.60
2017,09,22,15,14,18.60
2017,09,22,15,15,18.50
2017,09,22,15,16,18.50
2017,09,22,15,17,18.40
2017,09,22,15,18,18.20
2017,09,22,15,19,18.10
2017,09,22,15,20,17.90
2017,09,22,15,21,17.80
2017,09,22,15,22,17.70
2017,09,22,15,23,17.50
2017,09,22,15,24,17.40
2017,09,22,15,25,17.30
2017,09,22,15,26,17.20
2017,09,22,15,27,17.10
2017,09,22,15,28,17.00
2017,09,22,15,29,17.00
2017,09,22,15,30,16.90
2017,09,22,15,31,16.80
2017,09,22,15,32,16.80
2017,09,22,15,33,16.80
2017,09,22,15,34,16.80
2017,09,22,15,35,16.80
2017,09,22,15,36,16.80
2017,09,22,15,37,16.90
2017,09,22,15,38,16.90
2017,09,22,15,39,16.90
2017,09,22,15,40,16.90
2017,09,22,15,41,17.00
2017,09,22,15,42,17.10
2017,09,22,15,43,17.10
2017,09,22,15,44,17.20
2017,09,22,15,45,17.30
2017,09,22,15,46,17.40
2017,09,22,15,47,17.50
2017,09,22,15,48,17.60
2017,09,22,15,49,17.70
2017,09,22,15,50,17.80
2017,09,22,15,51,17.90
2017,09,22,15,52,18.00
2017,09,22,15,53,18.10
2017,09,22,15,54,18.20
2017,09,22,15,55,18.20
2017,09,22,15,56,18.30
2017,09,22,15,57,18.30
2017,09,22,15,58,18.40
2017,09,22,15,59,18.40
2017,09,22,16,00,18.40
2017,09,22,16,01,18.50
2017,09,22,16,02,18.50
2017,09,22,16,03,18.60
2017,09,22,16,04,18.60
2017,09,22,16,05,18.70
2017,09,22,16,06,18.70
2017,09,22,16,07,18.70
2017,09,22,16,08,18.70
2017,09,22,16,09,18.70
2017,09,22,16,10,18.70
2017,09,22,16,11,18.70
2017,09,22,16,12,18.60
2017,09,22,16,13,18.50
2017,09,22,16,14,18.40
2017,09,22,16,15,18.30
2017,09,22,16,16,18.30
2017,09,22,16,17,18.20
2017,09,22,16,18,18.20
2017,09,22,16,19,18.20
2017,09,22,16,20,18.20
2017,09,22,16,21,18.10
2017,09,22,16,22,18.20
2017,09,22,16,23,18.20
2017,09,22,16,24,18.20
2017,09,22,16,25,18.30
2017,09,22,16,26,18.30
2017,09,22,16,27,18.40
2017,09,22,16,28,18.50
2017,09,22,16,29,18.60
2017,09,22,16,30,18.60
2017,09,22,16,31,18.70
2017,09,22,16,32,18.80
2017,09,22,16,33,18.80
2017,09,22,16,34,18.80
2017,09,22,16,35,18.90
2017,09,22,16,36,18.90
2017,09,22,16,37,18.90
2017,09,22,16,38,18.80
2017,09,22,16,39,18.80
2017,09,22,16,40,18.70
2017,09,22,16,41,18.60
2017,09,22,16,42,18.50
2017,09,22,16,43,18.50
2017,09,22,16,44,18.40
2017,09,22,16,45,18.30
2017,09,22,16,46,18.30
2017,09,22,16,47,18.20
2017,09,22,16,48,18.20
2017,09,22,16,49,18.20
2017,09,22,16,50,18.10
2017,09,22,16,51,18.10
2017,09,22,16,52,18.10
2017,09,22,16,53,18.10
2017,09,22,16,54,18.10
2017,09,22,16,55,18.10
2017,09,22,16,56,18.10
2017,09,22,16,57,18.10
2017,09,22,16,58,18.10
2017,09,22,16,59,18.10
2017,09,22,17,00,18.10
2017,09,22,17,01,18.10
2017,09,22,17,02,18.10
2017,09,22,17,03,18.20
2017,09,22,17,04,18.10
2017,09,22,17,05,18.10
2017,09,22,17,06,18.10
2017,09,22,17,07,18.10
2017,09,22,17,08,18.10
2017,09,22,17,09,18.10
2017,09,22,17,10,18.00
2017,09,22,17,11,18.00
2017,09,22,17,12,17.90
2017,09,22,17,13,17.90
2017,09,22,17,14,17.80
2017,09,22,17,15,17.80
2017,09,22,17,16,17.80
2017,09,22,17,17,17.80
2017,09,22,17,18,17.70
2017,09,22,17,19,17.70
2017,09,22,17,20,17.70
2017,09,22,17,21,17.60
2017,09,22,17,22,17.60
2017,09,22,17,23,17.60
2017,09,22,17,24,17.60
2017,09,22,17,25,17.50
2017,09,22,17,26,17.50
2017,09,22,17,27,17.50
2017,09,22,17,28,17.40
2017,09,22,17,29,17.40
2017,09,22,17,30,17.40
2017,09,22,17,31,17.40
2017,09,22,17,32,17.40
2017,09,22,17,33,17.30
2017,09,22,17,34,17.30
2017,09,22,17,35,17.30
2017,09,22,17,36,17.30
2017,09,22,17,37,17.40
2017,09,22,17,38,17.40
2017,09,22,17,39,17.40
2017,09,22,17,40,17.40
2017,09,22,17,41,17.50
2017,09,22,17,42,17.60
2017,09,22,17,43,17.60